千帆星座-86 (QIANFAN-86)

基本信息
目录编号:
63172
目录名称:
QIANFAN-86
国际标识:
2025-046P
轨道中心:
EARTH
卫星名称:
千帆星座-86
卫星全名:
千帆星座-86 (QIANFAN-86)
卫星状态:
在轨 (已飞行368 天)
发射日期:
2025-03-11 UTC
国别 :
中国 (CN)
星等 :
--
轨道信息
数据来源 国际轨道数据 AOE轨道数据
星历时间 2026-03-13T23:42:09+0800
11小时前
查看轨道信息
2026-03-11T11:00:00+0800
3天前
查看轨道信息
半长轴 7446.705km 7446.721km
偏心率 0.0009492 0.0009159
轨道倾角 88.975° 88.974°
近地点辐角 224.285° 238.092°
升交点赤经 310.394° 310.655°
平近点角 135.754° 67.854°
近地点 1061.499km 1061.763km
远地点 1075.637km 1075.405km
周期 106.587分钟 106.588分钟
每日圈数 13.510039 13.509995
详细信息
卫星平台:
86
覆盖范围:
全球
运营商:
上海垣信卫星科技有限公司
运营商所在国:
中国
使用方式:
暂无
卫星简介
千帆星座,也被称为“G60星链”计划,是中国版“星链”的重要组成部分,旨在打造一个由1.4万多颗低轨宽频多媒体卫星构成的庞大星座。千帆星座计划由上海垣信卫星科技有限公司负责实施,于2023年启动建设。该项目是我国第二个低轨卫星大星座,旨在通过构建庞大的卫星网络,为全球用户提供高质量的通信和宽带互联网服务。
2D轨道图
3D轨道图
轨道高度分析图
轨道倾角分析图
轨道综合分析图
查看轨道综合分析图